Location: Schommer Observatory
(40.5200°N, 74.4500°W)
Time: 21:37:25
(UTC-04:00)

ISS - Visible Passes

Search period start: 22 May 2018 00:00
Search period end: 01 June 2018 00:00
Orbit: 402 x 407 km, 51.6° (Epoch: 23 May)

Date Brightness Start Highest point End Pass type
(mag) Time Alt. Az. Time Alt. Az. Time Alt. Az.
22 May -0.4 00:06:15 10° NW 00:07:55 13° N 00:09:35 10° NNE visible
22 May -0.5 01:43:40 10° NNW 01:45:28 14° NNE 01:47:17 10° NE visible
22 May -2.5 03:19:30 10° NW 03:22:37 41° NNE 03:25:45 10° ESE visible
22 May -2.6 04:56:22 10° W 04:58:56 22° SW 05:01:31 10° S visible
22 May -3.3 21:35:13 10° WSW 21:38:27 60° NW 21:41:42 10° NE visible
22 May -0.6 23:13:21 10° NW 23:15:28 16° NNW 23:17:34 10° NNE visible
23 May -0.3 00:51:34 10° NNW 00:53:00 12° N 00:54:27 10° NNE visible
23 May -1.6 02:27:31 10° NW 02:30:21 26° NNE 02:33:10 10° E visible
23 May -3.5 04:03:49 10° WNW 04:06:56 42° SW 04:10:01 10° SSE visible
23 May -3.9 20:43:03 10° SW 20:46:18 70° SE 20:49:33 10° ENE visible
23 May -1.0 22:20:30 10° WNW 22:23:04 21° NNW 22:25:37 10° NNE visible
23 May -0.4 23:59:11 10° NNW 00:00:30 12° N 00:01:49 10° NNE visible
24 May -1.0 01:35:34 10° NNW 01:37:44 19° NNE 01:37:44 19° NNE visible
24 May -1.7 21:27:46 10° W 21:30:42 29° NNW 21:33:38 10° NE visible
24 May -0.5 23:06:28 10° NW 23:08:00 13° N 23:09:32 10° NNE visible
25 May -0.7 00:43:34 10° NNW 00:45:33 15° NNE 00:46:06 14° NNE visible
25 May -0.7 22:13:33 10° NW 22:15:30 15° NNW 22:17:27 10° NNE visible
25 May -0.6 23:51:30 10° NNW 23:53:03 13° N 23:54:37 10° NE visible
26 May -0.7 01:27:22 10° NW 01:27:43 12° NW 01:27:43 12° NW visible
26 May -0.9 21:20:39 10° WNW 21:23:02 19° NNW 21:25:26 10° NNE visible
26 May -0.6 22:59:12 10° NNW 23:00:31 12° N 23:01:51 10° NNE visible
27 May -1.0 00:35:22 10° NNW 00:36:56 18° N 00:36:56 18° N visible
27 May -0.6 22:06:33 10° NNW 22:07:58 12° N 22:09:24 10° NNE visible
27 May -1.0 23:43:21 10° NNW 23:45:30 16° NNE 23:46:14 15° NNE visible
28 May -0.8 21:13:38 10° NW 21:15:25 14° N 21:17:12 10° NNE visible
28 May -0.8 22:51:17 10° NNW 22:52:58 13° N 22:54:40 10° NE visible
29 May -1.0 00:27:08 10° NW 00:28:12 18° NNW 00:28:12 18° NNW visible
29 May -0.8 21:59:02 10° NNW 22:00:25 12° N 22:01:47 10° NNE visible
29 May -1.6 23:35:04 10° NNW 23:37:35 23° NNE 23:37:35 23° NNE visible
30 May -0.8 21:06:28 10° NNW 21:07:50 12° N 21:09:12 10° NNE visible
30 May -1.2 22:43:01 10° NNW 22:45:20 18° NNE 22:47:00 13° NE visible
31 May -0.9 00:18:57 10° NW 00:19:37 15° NW 00:19:37 15° NW visible
31 May -1.0 21:50:56 10° NNW 21:52:47 14° NNE 21:54:38 10° NE visible
31 May -2.2 23:26:46 10° NW 23:29:03 34° N 23:29:03 34° N visible
